Weather History for Grand Canyon, AZ

Change the Weather History Date:

Monday, November 4, 2013

  Actual Average Record
Temperature  
Mean Temperature 36 °F -  
Max Temperature 52 °F 52 °F 69 °F (1977)
Min Temperature 19 °F 23 °F 15 °F (1990)
Degree Days  
Heating Degree Days 30    
Moisture  
Dew Point 19 °F    
Average Humidity 57    
Maximum Humidity 78    
Minimum Humidity 29    
Precipitation  
Precipitation 0.00 in - - ()
Sea Level Pressure  
Sea Level Pressure 29.87 in    
Wind  
Wind Speed 4 mph (SSW)    
Max Wind Speed 18 mph    
Max Gust Speed 28 mph    
Visibility 10 miles    
Events      
Averages and records for this station are not official NWS values.
T = Trace of Precipitation, MM = Missing Value Source: NWS Daily Summary

Daily Weather History Graph

Daily Weather History Graph

Search for Another Location

Airport:

Trip Planner

Search our weather history database for the weather conditions in past years. The results will help you decide how hot, cold, wet, or windy it might be!

Date:

Astronomy

Nov. 04, 2013 Rise Set
Actual Time 6:54 AM MST 5:29 PM MST
Civil Twilight 6:27 AM MST 5:56 PM MST
Nautical Twilight 5:57 AM MST 6:26 PM MST
Astronomical Twilight 5:27 AM MST 6:56 PM MST
Moon 8:06 AM MST (11/4) 6:40 PM MST (11/4)
Length of Visible Light 11h 28m
Length of Day
10h 35m
New Moon, 2% of the Moon is Illuminated
Nov 4
New Moon
Nov 9
First Quarter
Nov 17
Full
Nov 25
Last Quarter
Dec 2
New

Hourly Weather History & Observations

Time (MST) Temp. Windchill Dew Point Humidity Pressure Visibility Wind Dir Wind Speed Gust Speed Precip Events Conditions
12:54 AM 23.0 °F - 12.9 °F 65% 29.86 in 10.0 mi Calm Calm - N/A   Clear
1:54 AM 21.0 °F - 12.9 °F 71% 29.85 in 10.0 mi Calm Calm - N/A   Clear
2:54 AM 19.9 °F 14.9 °F 12.9 °F 74% 29.84 in 10.0 mi East 3.5 mph - N/A   Clear
3:54 AM 21.0 °F - 12.9 °F 71% 29.82 in 10.0 mi Calm Calm - N/A   Clear
4:54 AM 21.9 °F - 14.0 °F 72% 29.84 in 10.0 mi Calm Calm - N/A   Clear
5:54 AM 23.0 °F - 15.1 °F 72% 29.85 in 10.0 mi Calm Calm - N/A   Clear
6:54 AM 25.0 °F - 17.1 °F 72% 29.87 in 10.0 mi Calm Calm - N/A   Clear
7:54 AM 26.1 °F - 18.0 °F 71% 29.91 in 10.0 mi Calm Calm - N/A   Clear
8:54 AM 36.0 °F 33.3 °F 21.9 °F 57% 29.92 in 10.0 mi ESE 3.5 mph - N/A   Clear
9:54 AM 46.9 °F - 21.9 °F 37% 29.88 in 10.0 mi SSW 8.1 mph - N/A   Clear
10:54 AM 50.0 °F - 26.1 °F 39% 29.86 in 10.0 mi SSW 15.0 mph 21.9 mph N/A   Scattered Clouds
11:54 AM 50.0 °F - 25.0 °F 38% 29.85 in 10.0 mi WSW 16.1 mph 27.6 mph N/A   Clear
12:54 PM 52.0 °F - 25.0 °F 35% 29.83 in 10.0 mi SW 18.4 mph 27.6 mph N/A   Partly Cloudy
1:54 PM 52.0 °F - 23.0 °F 32% 29.82 in 10.0 mi SW 16.1 mph 26.5 mph N/A   Scattered Clouds
2:54 PM 51.1 °F - 19.9 °F 29% 29.82 in 10.0 mi SSW 17.3 mph 24.2 mph N/A   Clear
3:54 PM 50.0 °F - 19.0 °F 29% 29.83 in 10.0 mi WSW 9.2 mph - N/A   Mostly Cloudy
4:54 PM 46.9 °F - 21.9 °F 37% 29.84 in 10.0 mi NNW 5.8 mph - N/A   Mostly Cloudy
5:54 PM 44.1 °F - 21.9 °F 42% 29.87 in 10.0 mi Calm Calm - N/A   Overcast
6:54 PM 35.1 °F - 21.9 °F 59% 29.92 in 10.0 mi Calm Calm - N/A   Partly Cloudy
7:54 PM 30.0 °F - 19.9 °F 66% 29.96 in 10.0 mi Calm Calm - N/A   Clear
8:54 PM 28.9 °F 21.9 °F 19.0 °F 67% 29.92 in 10.0 mi NE 6.9 mph - N/A   Clear
9:54 PM 27.0 °F 21.6 °F 18.0 °F 69% 29.89 in 10.0 mi ENE 4.6 mph - N/A   Clear
10:54 PM 24.1 °F - 17.1 °F 75% 29.91 in 10.0 mi Calm Calm - N/A   Clear
11:54 PM 19.9 °F - 14.0 °F 78% 29.94 in 10.0 mi Calm Calm - N/A   Clear